Regional Weather Roundup
Issued by NWS

Home | Current Version | Previous Version | Text Only | Print | Product List | Glossary On
Versions: 1 2 3 4 5 6 7 8 9 10 11 12 13 14 15 16 17 18 19 20 21 22 23 24 25 26 27 28 29 30 31 32 33 34 35 36 37 38 39 40 41 42 43 44 45 46 47 48 49 50
305
ASHW40 PHFO 180943
RWRHI

WEATHER ROUNDUP FOR HAWAII
NATIONAL WEATHER SERVICE HONOLULU HI
1100 PM HST WED JUL 17 2019

THIS IS AN AUTOMATED REPORT THAT HAS NOT BEEN QUALITY CONTROLLED.

NOTE..."FAIR" INDICATES FEW OR NO CLOUDS BELOW 12,000 FEET WITH NO
SIGNIFICANT WEATHER AND/OR OBSTRUCTIONS TO VISIBILITY.

* - THESE SITES REPORT LIMITED FIELDS
# - BUOY DATA PROVIDED BY PACIFIC ISLANDS OCEAN OBSERVING SYSTEM.

HIZ001>004-181000-
KAUAI-NIIHAU-

CITY           SKY/WX    TMP DP  RH WIND       PRES   REMARKS
LIHUE APT      CLOUDY    81  70  69 E20       30.09S
PORT ALLEN*      N/A     77 N/A N/A E12         N/A
POIPU*           N/A     79 N/A N/A NE8G18      N/A
PRINCEVILLE*   NOT AVBL
KOKOLE POINT*  NOT AVBL
MOLOAA DAIRY*    N/A     79  68  69 E7G14       N/A
WAIMEA HTS*      N/A     75  64  69 E7G15       N/A
PUU OPAE*        N/A    N/A N/A N/A CALM        N/A
PUU LUA*       NOT AVBL
MAKAHA RIDGE*    N/A     72  61  68 VRB1G9      N/A
$$

HIZ005>011-181000-
OAHU-

CITY           SKY/WX    TMP DP  RH WIND       PRES   REMARKS
HONOLULU       MOCLDY    81  69  67 NE13      30.06R
KALAELOA       NOT AVBL
KANEOHE MCB    MOCLDY    74  70  87 E15G23    30.05R
WHEELER FIELD  MOCLDY    76  68  77 E6        30.08R
BELLOWS*         N/A    N/A N/A N/A NE22        N/A
KAHUKU*          N/A    N/A N/A N/A NE9G20      N/A
WHEELER*         N/A    N/A N/A N/A NE5G10      N/A
WAIANAE HARBOR   N/A    N/A N/A N/A E9G21       N/A
DILLINGHAM*      N/A     90  86  89 CALM        N/A  HX 119
KAHUKU TRN*      N/A     75  68  78 E8          N/A
KAWAILOA*        N/A     73  66  78 E10G18      N/A
KII*             N/A     79  70  73 E18         N/A
MAKUA RANGE*     N/A     81  66  61 E10         N/A
OAHU FOREST NW   N/A     72  64  78 CALM        N/A
SCHOFIELD BRK*   N/A     73  66  78 NE3         N/A
SCHOFIELD S*   NOT AVBL
WAIANAE VLY*     N/A     84  73  70 S8G18       N/A  HX  91
KUAOKALA*        N/A     75  66  73 NE17G26     N/A
HONOULIUULI*   NOT AVBL
MOKUOLOE IS*     N/A     81 N/A N/A E13G18      N/A
PALEHUA*         N/A     68  66  94 NE12G21     N/A
WAIAWA PHB*    NOT AVBL
$$

HIZ012>013-181000-
MOLOKAI-

CITY           SKY/WX    TMP DP  RH WIND       PRES   REMARKS
MOLOKAI AIRPT  FAIR      79  70  74 NE12      30.07R
KALAUPAPA      NOT AVBL
MAKAPULAPAI*   NOT AVBL
MOLOKAI 1*       N/A     68  61  77 W2G14       N/A
PUU ALII*        N/A     61  60  98 N3G15       N/A
$$

HIZ016-181000-
KAHOOLAWE-

CITY           SKY/WX    TMP DP  RH WIND       PRES   REMARKS
KAHOOLAWE*     NOT AVBL
HAKIOAWA*        N/A     74  68  81 MISG      30.47S
HONOKANAIA*    NOT AVBL
KANELOA*         N/A     77  70  78 E18G35    30.11R
KEALIALALO*    NOT AVBL
LUA MAKIKA*    NOT AVBL
$$

HIZ014>015-181000-
LANAI-

CITY           SKY/WX    TMP DP  RH WIND       PRES   REMARKS
LANAI CITY     FAIR      72  72 100 E6        30.11S
LANAI 1*         N/A     81  75  83 NE15G24     N/A
$$

HIZ017>028-181000-
MAUI-

CITY           SKY/WX    TMP DP  RH WIND       PRES   REMARKS
KAHULUI        FAIR      79  69  71 NE16G24   30.04R
KAPALUA-W MAUI NOT AVBL
HANA AIRPORT   CLOUDY    79  70  73 E6        30.10S
HANA*          NOT AVBL
HALEAKALA SUMM   N/A     54  -4   9 E25         N/A
MAALAEA BAY*     N/A     77 N/A N/A N14G20      N/A
HALEAKALA*     NOT AVBL
KAUPO GAP*     NOT AVBL
KULA 1*          N/A     52  45  76 E2G8        N/A
$$

HIZ023>026-181000-
BIG ISLAND OF HAWAII COAST AND LOWER SLOPES-

CITY           SKY/WX    TMP DP  RH WIND       PRES   REMARKS
KAILUA KONA    MOCLDY    80  65  59 CALM      30.00F
HILO           FAIR      74  68  81 SW3       30.08R
HONOKAA*       NOT AVBL
KAWAIHAE MWT*  NOT AVBL
KAWAIHAE*        N/A     82 N/A N/A E7          N/A
SOUTH POINT*   NOT AVBL
UPOLU AIRPORT* NOT AVBL
KAMUELA*       NOT AVBL
HAKALAU*         N/A     53  29  39 S6          N/A
KALOKO-HONOKO*   N/A     77  68  73 NE5       30.00F
PALI 2*          N/A     66  57  72 NE14        N/A
KEALAKOMO*       N/A     79  68  69 N14G22      N/A
KAUPULEHU*       N/A     72  63  73 S3G10       N/A
KAPAPALA*        N/A     62  59  89 NW5         N/A
LOWER KAHUKU*    N/A     64  64 100 N1G7        N/A
PUHE CS*         N/A    N/A N/A N/A E6G18       N/A
PUHO CS*         N/A     80  71  73 E2          N/A
PTA KEAMUKU*     N/A     61  57  88 E3          N/A
WAIKOLOA*        N/A     73  63  68 E16G25      N/A
$$

HIZ027>028-181000-
BIG ISLAND OF HAWAII INTERIOR AND SUMMMITS-

CITY           SKY/WX    TMP DP  RH WIND       PRES   REMARKS
BRADSHAW FIELD FAIR      52  40  64 CALM      30.38R
MK VISITOR CEN   N/A     57 -13   5 E12         N/A
MAUNA KEA*       N/A     37  12  35 NE22        N/A  WCI  27
MAUNA LOA*     NOT AVBL
MAUNA LOA 1*   NOT AVBL
PTA KIPUKA*      N/A     59  59 100 SE3         N/A
PTA RANGE 17*    N/A     57  55  94 NW2G9       N/A
PTA WEST*        N/A     59  55  88 S5          N/A
NENE CABIN*      N/A     54  30  40 N6          N/A
AHUMOA*          N/A     52  45  78 CALM        N/A
PTA PORTABLE*  NOT AVBL
PUU MALI*        N/A     55  50  82 SW7         N/A
$$

HIC003-181000-
NORTHWEST ISLANDS-

CITY           SKY/WX    TMP DP  RH WIND       PRES   REMARKS
MIDWAY ISLAND  MOCLDY    77  73  88 NE12      30.12R
MIDWAY NOS*      N/A     77 N/A N/A MISG      30.09S
FRENCH FRIGATE NOT AVBL
$$

PHZ110>124-180-181000-
BUOY REPORTS

STATION/POSITION TIME  TEMP    WIND        PRES    WAVE   SWELL
                       AIR SEA DIR/SP/G            HT/PER HT/DIR
                 (UTC) (F)     (DEG/KT/KT) (MB)    (FT/S) (FT/D)
BUOY 51101       0920   81     100/ 16/ 19 1020.3
BUOY 51100       NOT AVBL
BUOY 51002       0920                      1016.3
BUOY 51003       NOT AVBL
BUOY 51004       0840      81                N/A    10/ 8
WAIMEA BAY#      0912      78                N/A     4/ 8
MOKAPU POINT#    0900      81                N/A     8/ 8   2/130
LANAI#           0930      83                N/A     5/ 8   2/180
BARBERS PT#      0900      82                N/A     4/13   2/180
PAUWELA#         NOT AVBL
HILO#            0916      81                N/A     8/ 8   2/110
KANEOHE BAY#     0924      81                N/A     7/ 8
KANEOHE BAY 2#   NOT AVBL
HANALEI#         0900                        N/A     6/ 8
KAHULUI HARBOR   0854   79      40/ 12/ 18 1017.7R
HONOLULU HARBOR  0854   80 82   50/  5/ 11 1018.0R
PEARL HARBOR#    0900      82                N/A     4/ 7   2/160
KILO NALU        NOT AVBL
HILO HARBOR      0900   76 82  220/  1/  1 1018.2
MOKUOLOE         0836   80 83   90/  7/ 12 1018.5R
NAWILIWILI       0854   80      70/ 16/ 19 1018.9R
WHOTS BUOY       NOT AVBL
BUOY 51028       NOT AVBL
$$

......................KEY........................................
  SKY/WX - SKY CONDITIONS/PRESENT WEATHER
  TMP    - TEMPERATURE IN FAHRENHEIT
  DWPT   - DEWPOINT IN FAHRENHEIT
  RH     - RELATIVE HUMIDITY IN PERCENT
  WIND   - DIRECTION AND SPEED /MPH FOR ISLANDS...KTS FOR BUOYS/
  PRES   - MEAN SEA LEVEL PRESSURE IN INCHES OF HG
  VSB    - VISIBILITY IN MILES
  HX     - HEAT INDEX
  WCI    - WIND CHILL INDEX
  VRB    - VARIABLE WIND DIRECTION
  N/A    - NOT AVAILABLE




USA.gov is the U.S. government's official web portal to all federal, state and local government web resources and services.